[[{"header":{"parameterUnit":"m.s-1","parameterCategory":1,"la1":30.2991,"la2":30.254,"lo1":-89.0895,"lo2":-89.0444,"dy":0.0017,"dx":0.0017,"nx":28,"ny":28,"refTime":"2023-08-22T03:00:00:Z","depth":0,"parameterNumber":2,"parameterNumberName":"U-component_of_WINDS"},"data":[0,0,0,0,0,0,0,0,0,0,0,0,0,0,0,0,0,0,0,0,0,0,0,0,0,0,0,0,0,0,0,0,0,0,0,0,0,0,0,0,0,0,0,0,0,0,0,0,0,0,0,0,0,0,0,0,0,0,0.616,0.6162,0,0.636,0.6362,0.6364,0.6456,0.6456,0.6456,0.6455,0.6661,0.6667,0.6672,0,0,0,0,0,0,0,0,0,0,0,0,0,0.5857,0.5862,0.616,0.6162,0.6165,0.6359,0.6362,0.6365,0.6456,0.6456,0.6456,0.6455,0.666,0.6666,0.6673,0,0,0,0,0,0,0,0,0,0,0,0,0,0.6016,0.5864,0.616,0.6234,0.6243,0.6359,0.6362,0.6366,0.6456,0.6456,0.6456,0.6455,0.6657,0.6666,0.6674,0.6732,0,0,0.67,0.6704,0,0,0,0,0,0,0,0,0.6007,0.6027,0.622,0.6229,0.6239,0.6383,0.6331,0.6488,0.6456,0.6375,0.6455,0.6455,0.6569,0.6585,0.6623,0.6741,0.675,0.6701,0.6706,0.6709,0.6712,0,0,0,0,0,0,0,0.5995,0.6019,0.6239,0.6223,0.6234,0.6257,0.6279,0.6361,0.6471,0.6382,0.6389,0.6412,0.6574,0.6614,0.6628,0.6753,0.67,0.6708,0.6713,0.6716,0.6928,0.6928,0,0,0,0,0,0,0.5972,0.6009,0.6233,0.6245,0.612,0.6263,0.6288,0.6337,0.6471,0.6491,0.6412,0.6415,0.66,0.6618,0.6636,0.6712,0.6709,0.6717,0.6722,0.6927,0.6928,0.6928,0,0,0,0,0,0,0.5965,0.5991,0.6225,0.6129,0.616,0.6268,0.6323,0.6341,0.6382,0.6493,0.6513,0.6433,0.6601,0.6624,0.6707,0.672,0.6721,0.6729,0.6926,0.6927,0.6928,0.6864,0,0,0,0,0,0,0.5956,0.5988,0.6012,0.6129,0.6165,0.6292,0.6324,0.6345,0.6396,0.6402,0.6518,0.6537,0.6602,0.6694,0.6715,0.6732,0.6735,0.6926,0.6927,0.6928,0.6865,0.6862,0.686,0,0,0,0,0,0.5945,0.5987,0.6013,0.6039,0.6197,0.6293,0.6314,0.6388,0.6396,0.6421,0.6492,0.6533,0.6715,0.6701,0.6726,0.6746,0.6925,0.6927,0.6928,0.6867,0.6863,0.686,0,0,0,0,0,0,0.587,0.6003,0.6034,0.6114,0.6191,0.6308,0.6341,0.6382,0.6458,0.6461,0.655,0.6575,0.665,0.6706,0.6689,0.6808,0.6824,0.683,0.6769,0.6766,0.6763,0.6749,0.6742,0,0,0,0,0,0.5862,0.5929,0.6042,0.6102,0.6139,0.6233,0.6278,0.6328,0.6411,0.6445,0.6522,0.6602,0.6677,0.6724,0.68,0.6873,0.6899,0.6899,0.6896,0.6893,0.6898,0.694,0.694,0.6932,0.6932,0.6932,0,0,0.5847,0.5929,0.5966,0.6089,0.6155,0.6221,0.626,0.633,0.638,0.6456,0.6538,0.6597,0.6692,0.677,0.6808,0.6819,0.6905,0.6895,0.6892,0.6898,0.6941,0.6942,0.6942,0.6933,0.6933,0.6933,0,0,0.5855,0.5924,0.5981,0.6045,0.6143,0.6205,0.6218,0.6329,0.6371,0.6455,0.6512,0.6573,0.6701,0.6765,0.6815,0.6844,0.6884,0.6866,0.6852,0.6891,0.6892,0.6893,0.6903,0.6906,0.687,0.6869,0.6869,0,0.5825,0.5929,0.6005,0.6071,0.6123,0.6192,0.625,0.6309,0.6427,0.6461,0.6471,0.6631,0.67,0.6793,0.68,0.6838,0.6856,0.6854,0.6886,0.6888,0.689,0.69,0.6904,0.6867,0.6867,0.6867,0.6867,0,0.5886,0.5956,0.5991,0.6101,0.6157,0.6219,0.6304,0.6351,0.6395,0.6455,0.6538,0.6623,0.6716,0.6741,0.6786,0.6841,0.6844,0.6869,0.6887,0.6886,0.6897,0.6902,0.6862,0.6863,0.6864,0.6865,0,0,0.5854,0.6005,0.6016,0.6066,0.6179,0.6235,0.6298,0.6388,0.6426,0.6504,0.656,0.6664,0.6687,0.6743,0.6795,0.683,0.6846,0.685,0.6854,0.6846,0.6911,0.6892,0.6895,0.6873,0.6874,0.6875,0.6903,0,0.5878,0.5995,0.6065,0.6154,0.6219,0.6285,0.634,0.6414,0.6472,0.6535,0.6599,0.6671,0.6696,0.673,0.6767,0.6836,0.686,0.6835,0.6926,0.6928,0.69,0.6901,0.6882,0.6904,0.6907,0.6908,0.6909,0,0.5922,0.5997,0.6092,0.6195,0.6225,0.6274,0.6361,0.6421,0.6506,0.6545,0.6605,0.6657,0.6726,0.6737,0.6833,0.6814,0.6855,0.6894,0.6896,0.6909,0.6919,0.6913,0.6913,0.6916,0.6917,0.6916,0.6915,0,0.5888,0.6014,0.6087,0.6128,0.625,0.6282,0.6335,0.6419,0.6468,0.6544,0.6576,0.6659,0.6704,0.6767,0.6839,0.684,0.6927,0.6944,0.6961,0.6959,0.6978,0.6976,0.6985,0.7003,0.7003,0.7003,0.7003,0,0.5908,0.5963,0.6073,0.6118,0.6181,0.626,0.6321,0.6378,0.6452,0.6509,0.6571,0.6623,0.6714,0.6777,0.6834,0.6904,0.6924,0.6957,0.6972,0.6952,0.6948,0.6981,0.6982,0.7004,0.7004,0.7003,0.7003,0,0.5882,0.5958,0.6041,0.6149,0.6178,0.622,0.6312,0.6358,0.6417,0.6488,0.6509,0.6602,0.6679,0.6756,0.6861,0.6899,0.6968,0.6987,0.6939,0.6947,0.696,0.6957,0.6991,0.6999,0.701,0.701,0.701,0,0.589,0.5934,0.6046,0.6088,0.6138,0.6206,0.6255,0.6333,0.6382,0.6481,0.6514,0.6595,0.6665,0.6784,0.6862,0.6941,0.6963,0.6969,0.6976,0.6954,0.6963,0.696,0.6965,0.6967,0.6966,0.6966,0.6965,0,0.5895,0.593,0.5999,0.6081,0.6138,0.6206,0.6276,0.6307,0.6399,0.645,0.6529,0.6583,0.6688,0.6768,0.6855,0.6909,0.6952,0.6962,0.6971,0.6952,0.6922,0.6938,0.6932,0.6962,0.6962,0.6962,0.6963,0.6963,0.5887,0.5929,0.6013,0.6088,0.6148,0.6212,0.626,0.6324,0.6391,0.6483,0.6524,0.6603,0.6685,0.6808,0.686,0.6923,0.6935,0.6947,0.695,0.6952,0.6947,0.691,0.6939,0.6939,0.694,0.694,0.694,0,0.5896,0.5953,0.602,0.6116,0.6174,0.6208,0.6287,0.6333,0.6402,0.6475,0.6541,0.663,0.6707,0.6789,0.6871,0.6905,0.6927,0.6924,0.6923,0.6934,0.6932,0.6917,0.6905,0.6905,0.6905,0.6905,0.6905,0.6905,0.5907,0.5979,0.6023,0.6125,0.6182,0.626,0.6301,0.636,0.6418,0.6516,0.6579,0.6632,0.6708,0.6795,0.6867,0.6889,0.6916,0.6907,0.6935,0.6932,0.6934,0.6937,0.6923,0.6913,0.6913,0.6932,0.6932,0.6932]},{"header":{"parameterUnit":"m.s-1","parameterCategory":1,"la1":30.2991,"la2":30.254,"lo1":-89.0895,"lo2":-89.0444,"dy":0.0017,"dx":0.0017,"nx":28,"ny":28,"refTime":"2023-08-22T03:00:00:Z","depth":0,"parameterNumber":3,"parameterNumberName":"V-component_of_WINDS"},"data":[0,0,0,0,0,0,0,0,0,0,0,0,0,0,0,0,0,0,0,0,0,0,0,0,0,0,0,0,0,0,0,0,0,0,0,0,0,0,0,0,0,0,0,0,0,0,0,0,0,0,0,0,0,0,0,0,0,0,2.8457,2.8457,0,2.8456,2.8456,2.8456,2.8476,2.8476,2.8477,2.8477,2.8475,2.8474,2.8473,0,0,0,0,0,0,0,0,0,0,0,0,0,2.8471,2.8471,2.8457,2.8457,2.8457,2.8456,2.8456,2.8456,2.8476,2.8477,2.8477,2.8478,2.8475,2.8474,2.8473,0,0,0,0,0,0,0,0,0,0,0,0,0,2.8467,2.8471,2.8457,2.8466,2.8467,2.8456,2.8456,2.8456,2.8476,2.8477,2.8477,2.8478,2.8475,2.8474,2.8473,2.8452,0,0,2.8471,2.847,0,0,0,0,0,0,0,0,2.8467,2.8467,2.8465,2.8466,2.8467,2.8467,2.8461,2.8455,2.8476,2.8472,2.8478,2.8478,2.8471,2.8471,2.8469,2.8452,2.8452,2.8471,2.847,2.847,2.847,0,0,0,0,0,0,0,2.8468,2.8467,2.8456,2.8465,2.8466,2.847,2.847,2.846,2.8467,2.8473,2.8474,2.8474,2.8472,2.847,2.8469,2.8452,2.8471,2.847,2.8469,2.8469,2.8417,2.8416,0,0,0,0,0,0,2.8467,2.8467,2.8456,2.8456,2.8469,2.8469,2.8469,2.8466,2.8468,2.8469,2.8473,2.8475,2.8471,2.847,2.8469,2.8443,2.847,2.8469,2.8468,2.8418,2.8417,2.8416,0,0,0,0,0,0,2.8467,2.8466,2.8456,2.8462,2.8461,2.8468,2.8464,2.8466,2.8464,2.8468,2.8469,2.847,2.8471,2.847,2.8456,2.8444,2.8469,2.8468,2.8419,2.8418,2.8416,2.8393,0,0,0,0,0,0,2.8467,2.8466,2.8458,2.8462,2.8461,2.8444,2.8463,2.8465,2.8462,2.8464,2.8465,2.8466,2.8472,2.8457,2.8455,2.8443,2.8467,2.842,2.8418,2.8417,2.8395,2.8391,2.8387,0,0,0,0,0,2.8468,2.8451,2.8458,2.8457,2.8452,2.8444,2.8443,2.8451,2.8461,2.8453,2.8456,2.8466,2.8446,2.8456,2.8454,2.8441,2.8421,2.8419,2.8417,2.8396,2.8391,2.8388,0,0,0,0,0,0,2.8445,2.8452,2.8459,2.8444,2.8443,2.8447,2.8437,2.8446,2.8442,2.8444,2.8453,2.8453,2.8437,2.8438,2.8449,2.842,2.8435,2.8432,2.842,2.8415,2.8412,2.8411,2.8466,0,0,0,0,0,2.8439,2.8432,2.8438,2.8424,2.8423,2.843,2.8427,2.8434,2.8433,2.8432,2.8434,2.8433,2.8426,2.8421,2.8415,2.8396,2.8395,2.8385,2.8382,2.8379,2.8376,2.8364,2.836,2.8409,2.8409,2.8409,0,0,2.8424,2.8427,2.8423,2.8419,2.842,2.8412,2.843,2.8421,2.8415,2.8431,2.8418,2.8419,2.8418,2.8401,2.8393,2.84,2.8362,2.8376,2.8374,2.8373,2.8362,2.8357,2.8353,2.8408,2.8408,2.8409,0,0,2.8394,2.8397,2.8384,2.8384,2.8385,2.839,2.8387,2.839,2.8392,2.8379,2.839,2.8383,2.8372,2.837,2.8367,2.8337,2.8345,2.8335,2.8315,2.8304,2.83,2.8296,2.8284,2.8279,2.8332,2.8332,2.8332,0,2.8376,2.8365,2.8376,2.8367,2.8364,2.838,2.8366,2.8366,2.8364,2.8362,2.8371,2.8356,2.8356,2.8338,2.8331,2.8329,2.8325,2.8334,2.83,2.8296,2.8293,2.8281,2.8276,2.8331,2.8331,2.8331,2.8331,0,2.8342,2.8335,2.8325,2.8323,2.832,2.8309,2.8317,2.8312,2.8319,2.8323,2.8309,2.831,2.8304,2.8301,2.8307,2.8284,2.8288,2.8298,2.8313,2.8287,2.8275,2.8271,2.8329,2.8329,2.833,2.833,0,0,2.8296,2.8302,2.8298,2.8297,2.8299,2.8293,2.8282,2.8277,2.8272,2.8271,2.8261,2.8251,2.826,2.8258,2.8264,2.8254,2.8228,2.8266,2.8266,2.8257,2.82,2.819,2.8185,2.8234,2.8234,2.8233,2.8199,0,2.8265,2.8247,2.8257,2.8237,2.823,2.8245,2.8235,2.8235,2.8238,2.8231,2.8235,2.8227,2.8241,2.8239,2.8231,2.8233,2.8216,2.8236,2.8223,2.8222,2.8221,2.818,2.817,2.8138,2.8195,2.8194,2.8194,0,2.8226,2.8224,2.8204,2.8207,2.8204,2.8195,2.8191,2.8186,2.8185,2.8188,2.8186,2.8194,2.8183,2.8199,2.8182,2.8195,2.8191,2.8191,2.819,2.8187,2.8205,2.8174,2.8128,2.8122,2.8187,2.8188,2.8188,0,2.8192,2.8184,2.8171,2.817,2.8174,2.8167,2.8168,2.8169,2.8165,2.8162,2.8159,2.8154,2.8151,2.8146,2.8153,2.8164,2.8134,2.8152,2.8135,2.8134,2.8126,2.8126,2.8077,2.8127,2.8127,2.8127,2.8127,0,2.8156,2.8142,2.8155,2.8147,2.8132,2.8143,2.8128,2.8131,2.8131,2.8122,2.8136,2.8127,2.8137,2.8129,2.8135,2.8119,2.8118,2.8119,2.812,2.8116,2.8116,2.8112,2.8113,2.8126,2.8126,2.8126,2.8126,0,2.8114,2.8123,2.8109,2.8114,2.8115,2.8103,2.8107,2.8099,2.8104,2.8093,2.8091,2.8098,2.8089,2.8096,2.8088,2.8091,2.807,2.8075,2.807,2.807,2.8052,2.8053,2.7997,2.7989,2.8046,2.8046,2.8045,0,2.8089,2.8079,2.8083,2.8079,2.8079,2.8072,2.8069,2.808,2.8076,2.8075,2.8066,2.8059,2.8053,2.8039,2.8042,2.8035,2.8039,2.802,2.8038,2.8035,2.8036,2.8036,2.8034,2.8016,2.8015,2.8015,2.8014,0,2.8042,2.8047,2.8042,2.8039,2.8035,2.8032,2.803,2.8026,2.8037,2.8031,2.8023,2.8019,2.8011,2.8003,2.7997,2.7997,2.8007,2.8009,2.8004,2.7999,2.7996,2.7995,2.8057,2.8009,2.801,2.801,2.801,2.8011,2.8007,2.7998,2.8,2.7994,2.7994,2.7992,2.7984,2.7989,2.7983,2.7977,2.7984,2.7974,2.7973,2.7967,2.7966,2.7957,2.7965,2.7959,2.7957,2.7954,2.7951,2.7999,2.7956,2.7957,2.7957,2.7957,2.7957,0,2.7959,2.7961,2.7956,2.7953,2.7948,2.796,2.7959,2.7953,2.7944,2.7944,2.7938,2.7928,2.7921,2.7924,2.7917,2.7909,2.7913,2.7907,2.7906,2.7906,2.7945,2.7949,2.7904,2.7904,2.7904,2.7904,2.7904,2.7904,2.7933,2.7919,2.7924,2.791,2.7912,2.7903,2.7901,2.7899,2.7899,2.7887,2.7881,2.7884,2.7885,2.7878,2.7871,2.7872,2.7868,2.7859,2.7862,2.7898,2.7903,2.7908,2.7912,2.7859,2.7859,2.7823,2.7822,2.7822]}]]